カタログに戻る

FENGYUN 1C DEB

運用中SSO
NORAD 38491·DEBRIS·🇨🇳 China

打ち上げ May 10, 1999 から Taiyuan Satellite Launch Center

Loading…

次のパス (今後24時間)

TLE

経年Source: Space-Track

元期: Sep 4, 2026, 06:20 UTC

1 38491U 99025ESA 26247.26441806  .00000314  00000-0  20771-3 0  9990
2 38491  98.9362 251.0814 0225410  15.0775 345.6964 13.96679907701668

AllMySatでFENGYUN 1C DEBをリアルタイム追跡

Download on the App Store